Rifle, CO

3:16 PM MST on November 18, 2017 (GMT -0700)
Garfield County Regional

Weather History for KRIL - March, 2012

Change the Weather History Date:

Monday, March 12, 2012

  Actual Average Record
Temperature  
Mean Temperature 43 °F 38 °F  
Max Temperature 62 °F 52 °F 70 °F (1934)
Min Temperature 24 °F 25 °F -11 °F (1948)
Degree Days  
Heating Degree Days 22 26  
Month to date heating degree days 349 337  
Since 1 July heating degree days 5110 5334  
Cooling Degree Days 0 0  
Month to date cooling degree days 0 0  
Year to date cooling degree days 0 0  
Moisture  
Dew Point 19 °F    
Average Humidity 48    
Maximum Humidity 81    
Minimum Humidity 14    
Precipitation  
Precipitation 0.00 in 0.03 in 0.39 in (1918)
Month to date precipitation 0.16 0.37  
Year to date precipitation 1.83 1.94  
Sea Level Pressure  
Sea Level Pressure 29.96 in    
Wind  
Wind Speed 6 mph (SW)    
Max Wind Speed 22 mph    
Max Gust Speed 28 mph    
Visibility 10 miles    
Events      
T = Trace of Precipitation, MM = Missing Value Source: NWS Daily Summary

Daily Weather History Graph

Daily Weather History Graph

Search for Another Location

Airport or City:

Trip Planner

Search our weather history database for the weather conditions in past years. The results will help you decide how hot, cold, wet, or windy it might be!

Date:

Astronomy

Mar. 12, 2012 Rise Set
Actual Time 7:26 AM MDT 7:15 PM MDT
Civil Twilight 6:59 AM MDT 7:42 PM MDT
Nautical Twilight 6:28 AM MDT 8:13 PM MDT
Astronomical Twilight 5:56 AM MDT 8:44 PM MDT
Moon No Moon Rise 9:51 AM MDT (3/12)
Length of Visible Light 12h 42m
Length of Day
11h 49m
Waning Gibbous, 75% of the Moon is Illuminated
Mar 12
Waning Gibbous
Mar 14
Last Quarter
Mar 22
New
Mar 30
First Quarter
Apr 6
Full

Hourly Weather History & Observations

Time (MDT) Temp. Windchill Dew Point Humidity Pressure Visibility Wind Dir Wind Speed Gust Speed Precip Events Conditions
12:53 AM 34.0 °F - 21.0 °F 59% 29.84 in 10.0 mi Calm Calm - N/A   Clear
1:53 AM 30.9 °F - 21.0 °F 67% 29.84 in 10.0 mi Calm Calm - N/A   Clear
2:53 AM 28.9 °F 23.9 °F 21.0 °F 72% 29.87 in 10.0 mi East 4.6 mph - N/A   Clear
3:53 AM 28.9 °F 25.2 °F 21.0 °F 72% 29.87 in 10.0 mi East 3.5 mph - N/A   Clear
4:53 AM 28.9 °F - 21.0 °F 72% 29.90 in 10.0 mi Calm Calm - N/A   Clear
5:53 AM 27.0 °F 20.5 °F 19.9 °F 75% 29.94 in 10.0 mi East 5.8 mph - N/A   Clear
6:53 AM 25.0 °F 20.7 °F 19.9 °F 81% 29.99 in 10.0 mi SE 3.5 mph - N/A   Clear
7:53 AM 27.0 °F 23.0 °F 19.9 °F 75% 30.03 in 10.0 mi SSW 3.5 mph - N/A   Clear
8:53 AM 32.0 °F - 23.0 °F 69% 30.06 in 10.0 mi Calm Calm - N/A   Clear
9:53 AM 37.9 °F 35.5 °F 23.0 °F 55% 30.06 in 10.0 mi WSW 3.5 mph - N/A   Clear
10:53 AM 46.0 °F - 23.0 °F 40% 30.03 in 10.0 mi Calm Calm - N/A   Clear
11:53 AM 54.0 °F - 18.0 °F 24% 30.00 in 10.0 mi WNW 9.2 mph - N/A   Clear
12:53 PM 57.9 °F - 14.0 °F 18% 29.97 in 10.0 mi West 19.6 mph - N/A   Clear
1:53 PM 59.0 °F - 15.1 °F 18% 29.96 in 10.0 mi WSW 12.7 mph 20.7 mph N/A   Clear
2:53 PM 60.1 °F - 15.1 °F 17% 29.93 in 10.0 mi West 12.7 mph 23.0 mph N/A   Clear
3:53 PM 62.1 °F - 14.0 °F 15% 29.91 in 10.0 mi West 16.1 mph - N/A   Clear
4:53 PM 62.1 °F - 14.0 °F 15% 29.91 in 10.0 mi West 16.1 mph - N/A   Clear
5:53 PM 60.1 °F - 12.9 °F 16% 29.92 in 10.0 mi West 16.1 mph - N/A   Clear
6:53 PM 55.9 °F - 14.0 °F 19% 29.96 in 10.0 mi WSW 8.1 mph - N/A   Clear
7:53 PM 46.9 °F - 18.0 °F 32% 30.00 in 10.0 mi Calm Calm - N/A   Clear
8:53 PM 45.0 °F 40.6 °F 19.0 °F 36% 30.00 in 10.0 mi SSW 8.1 mph - N/A   Clear
9:53 PM 39.9 °F - 19.0 °F 43% 30.03 in 10.0 mi Calm Calm - N/A   Clear
10:53 PM 42.1 °F 39.2 °F 19.0 °F 40% 30.01 in 10.0 mi SE 4.6 mph - N/A   Clear
11:53 PM 37.9 °F 35.5 °F 19.0 °F 47% 30.00 in 10.0 mi ESE 3.5 mph - N/A   Clear